Wind_Speed
15 15 15 18 16 19 19 18 18 19 22 24 19 19 16 14 16 14 11 16 16 14 13 20 18 19 20 17 17 17 17 17 17 17 17 17 15 14 12 12 11 11 11 12
17 18 17 14 16 14 12 20 21 21 20 19 20 23 18 14 17 17 17 13 19 19 18 18 17 16 16 15 15 14 14 16 15 14 13 15 15 14 13 11 12 12 12 13
14 16 10 8 12 15 15 14 18 21 19 18 19 24 19 18 20 19 12 11 4 21 21 19 18 17 15 16 16 15 15 12 10 15 15 15 14 14 13 13 10 12 12 12
8 9 6 11 15 13 17 15 15 14 14 15 15 18 17 13 14 14 12 7 6 18 21 16 16 19 17 16 14 13 14 12 11 14 15 16 16 15 14 12 11 11 11 12
12 14 11 16 18 17 19 13 15 14 17 18 18 13 17 15 15 14 11 10 8 14 20 18 16 21 19 19 14 13 13 13 12 9 12 9 17 17 14 13 12 10 11 13
21 20 19 18 16 18 16 15 20 17 15 15 19 17 18 15 6 5 16 11 8 12 17 17 22 23 21 22 18 15 15 13 11 12 12 13 16 16 15 13 12 11 11 10
21 22 21 20 19 16 18 16 11 11 13 13 18 16 15 8 7 14 13 13 10 8 12 15 17 19 21 22 20 16 16 14 13 14 14 15 15 14 15 13 12 12 11 10
18 22 16 20 23 18 16 17 12 16 13 15 18 12 6 8 14 9 11 15 14 11 8 11 16 19 22 22 20 20 19 16 15 15 15 16 16 14 13 13 12 12 12 10
19 26 23 20 18 9 14 17 20 20 20 16 16 22 22 13 13 11 9 7 9 10 10 11 15 20 24 23 22 20 19 18 17 17 16 16 14 14 15 14 14 13 11 10
17 17 21 19 23 20 19 16 13 11 15 21 15 18 8 8 10 4 4 5 4 8 10 11 13 19 24 24 23 21 20 20 19 18 17 16 16 15 15 14 14 13 12 11
16 15 17 19 21 21 13 15 18 17 14 13 11 8 12 8 11 6 4 4 4 2 7 8 10 21 23 27 24 22 22 22 21 19 18 19 17 17 16 16 14 13 12 11
19 15 15 20 21 25 22 18 17 12 14 15 12 12 3 13 8 9 9 9 11 8 12 6 10 22 22 24 24 24 23 24 24 22 21 19 19 17 17 17 15 13 12 12
13 10 11 14 16 20 21 12 14 16 11 15 10 8 9 4 5 3 1 11 10 10 11 9 6 11 21 22 22 24 24 22 25 22 23 21 20 20 21 20 18 19 14 16
3 11 15 12 14 13 18 19 17 18 9 10 12 15 14 15 7 5 8 12 14 2 15 12 8 10 22 26 24 25 26 24 22 21 23 24 21 21 20 19 15 16 13 13
15 17 17 21 23 23 24 21 19 19 17 9 16 18 20 15 14 13 10 9 14 9 9 17 15 14 21 22 25 25 27 26 23 23 20 22 20 18 19 19 16 15 14 13
15 17 17 19 20 23 22 22 20 21 21 19 18 21 21 23 20 18 18 15 10 7 6 7 18 17 18 26 27 28 30 27 25 24 22 21 21 21 20 20 19 15 15 14
13 1 8 21 19 21 17 21 21 22 22 20 19 18 16 19 19 16 8 8 10 9 10 10 11 20 26 30 29 28 29 27 26 24 23 23 23 22 21 20 19 19 17 16
18 17 9 6 10 8 11 13 18 21 21 19 18 21 19 16 12 8 9 10 10 11 11 7 1 16 30 30 30 28 30 29 26 24 25 24 23 22 21 19 19 19 19 18
19 17 12 13 13 16 24 17 13 10 14 18 11 16 13 7 8 10 16 16 10 8 7 9 9 7 30 29 30 30 29 28 26 25 25 23 22 21 22 21 21 20 19 17
23 21 14 10 12 15 14 4 4 4 6 12 13 3 4 12 6 4 10 14 13 4 4 5 6 10 25 24 28 29 28 27 24 24 24 23 22 22 22 22 22 20 19 17
5 9 16 13 10 12 15 10 5 6 1 4 4 6 10 5 3 5 6 9 9 1 5 8 10 12 17 21 26 25 25 24 23 24 23 23 23 22 22 22 21 20 19 20
7 4 5 6 8 14 17 2 3 7 3 8 7 12 9 7 8 10 2 6 9 7 8 10 11 13 17 24 27 23 23 25 24 24 23 22 21 21 21 22 20 18 22 22
10 10 5 6 2 9 13 4 9 8 6 4 4 7 4 5 9 9 11 8 12 9 11 12 13 15 15 19 24 23 23 25 25 24 22 23 22 21 22 22 22 20 19 19
4 8 6 5 4 9 10 7 9 9 10 4 9 7 1 6 6 11 8 12 10 12 13 16 17 15 15 17 18 22 28 27 27 24 23 24 23 22 22 20 20 19 19 17
6 7 4 6 9 12 12 12 13 12 11 9 10 4 9 8 9 7 7 5 9 11 15 18 19 17 18 19 19 23 27 28 26 25 24 24 22 22 21 19 19 18 18 19
11 9 5 7 9 6 14 9 12 14 7 11 12 8 10 8 10 7 9 4 8 12 18 16 18 18 20 21 21 25 28 27 27 24 24 24 23 22 21 19 15 15 19 16
Wind_Direction
269 263 248 267 296 302 305 296 288 288 298 301 296 291 280 262 274 214 208 180 174 188 170 155 165 150 133 145 153 157 151 154 152 154 150 146 135 126 113 97 86 72 71 63
244 249 263 277 292 293 282 288 286 285 280 274 280 275 276 284 269 264 202 209 176 168 161 146 157 147 149 154 162 157 162 170 172 160 145 136 131 123 120 106 85 73 66 72
260 279 313 262 282 278 273 271 282 282 294 292 292 280 273 251 252 259 259 179 124 160 155 150 149 154 160 169 170 172 170 168 151 137 126 126 131 130 125 116 86 76 70 63
280 283 314 279 265 263 270 267 285 296 284 277 279 288 280 264 244 240 163 133 68 159 142 147 152 163 176 172 174 169 155 152 139 149 153 158 163 128 106 110 102 86 78 71
255 287 238 243 258 272 276 293 276 272 279 284 271 266 274 268 253 210 154 126 119 129 145 155 157 162 171 163 164 157 158 159 160 152 157 143 105 121 126 120 111 97 76 69
281 274 273 282 276 284 288 274 277 264 265 254 263 260 272 269 10 106 114 135 143 142 146 152 157 167 173 157 162 165 163 154 152 143 140 138 133 133 133 131 122 108 95 76
273 267 254 240 250 255 266 263 273 263 242 248 249 247 245 137 118 136 133 138 141 142 154 154 158 164 167 157 159 165 174 162 155 147 141 139 138 137 133 132 125 120 109 90
275 282 269 273 251 241 257 248 232 270 274 278 293 283 350 95 113 116 141 155 150 154 146 157 158 165 162 161 168 184 168 163 160 153 145 142 138 135 132 131 127 117 112 106
284 281 299 280 301 218 246 259 286 274 265 276 279 284 294 172 132 127 150 146 129 149 160 172 159 170 159 167 177 181 172 167 162 154 148 144 141 140 136 128 123 119 118 113
292 295 285 292 290 261 251 270 274 277 278 263 268 280 280 81 92 65 66 38 87 154 163 172 168 172 163 171 174 181 176 165 160 155 152 149 145 137 135 133 125 126 120 115
301 288 279 278 268 271 259 227 253 260 262 268 257 270 134 220 128 202 256 182 223 184 152 161 171 169 168 169 170 174 172 164 162 160 160 151 145 143 140 131 127 127 127 127
289 302 281 272 283 289 293 266 270 273 245 274 300 271 151 163 198 197 196 181 185 200 157 175 169 164 158 168 170 173 163 167 166 165 156 152 148 149 143 138 134 133 133 131
295 271 286 290 279 271 265 339 333 306 311 227 236 260 271 177 177 239 285 329 311 178 153 159 173 155 158 170 172 171 160 168 168 163 155 152 158 154 150 148 150 140 148 147
295 266 262 254 263 296 288 292 287 291 273 314 280 290 286 285 299 298 146 255 278 274 161 175 175 153 164 170 171 168 160 168 172 163 161 157 163 161 160 153 149 157 161 157
266 268 263 267 266 269 276 280 283 274 266 242 285 279 286 297 301 308 304 283 278 260 191 176 189 173 170 171 175 169 160 167 176 163 162 165 158 162 158 150 154 152 143 154
265 250 251 262 262 265 270 267 261 259 261 267 262 272 279 278 276 279 277 273 273 273 265 272 185 187 175 182 180 176 165 171 180 171 167 169 163 160 161 160 155 154 153 154
282 207 250 252 253 259 258 251 252 262 263 269 269 275 303 287 276 280 309 299 283 259 239 228 237 182 176 183 185 177 168 171 177 173 168 174 169 162 163 161 162 163 162 158
253 258 241 271 279 255 259 245 243 243 253 266 273 263 250 271 287 284 315 306 290 269 250 226 298 168 170 173 181 171 166 171 172 176 173 176 167 166 165 164 170 169 169 169
233 249 257 255 255 273 274 279 279 268 252 287 296 294 295 322 1 7 22 345 351 347 26 50 50 77 151 160 169 163 164 167 172 182 168 172 173 161 168 175 171 172 165 166
222 227 229 237 255 260 274 264 250 92 266 232 254 21 36 334 319 26 3 338 320 328 65 89 104 105 134 148 157 156 162 167 176 167 165 160 166 177 179 173 172 168 166 162
235 246 225 224 244 260 266 300 76 234 130 51 4 324 357 44 217 261 181 248 270 309 127 130 135 137 134 144 151 156 162 161 160 154 155 173 182 176 176 173 168 166 159 146
234 231 219 223 246 266 2 267 142 311 143 63 33 338 346 1 359 346 347 263 263 218 139 150 138 138 147 148 151 155 150 152 155 159 166 177 173 172 172 167 164 160 156 152
272 242 224 191 215 179 202 210 288 288 300 307 304 291 296 341 323 315 327 232 244 196 177 150 135 134 146 154 154 148 153 156 160 161 174 171 173 171 169 168 165 147 157 154
188 313 252 255 262 299 311 291 275 294 313 257 258 285 218 273 329 294 323 301 242 187 162 151 145 150 148 155 161 157 158 162 161 172 175 168 169 165 167 171 173 170 160 172
216 242 278 283 303 306 302 307 310 306 303 309 285 248 220 221 242 264 293 325 294 179 161 164 154 157 160 160 162 159 159 165 168 173 169 169 168 165 170 174 179 180 179 185
272 276 296 287 281 285 285 290 290 289 283 288 268 289 311 203 235 267 295 278 282 173 184 158 150 158 162 166 164 161 170 173 168 169 171 169 164 172 172 170 151 177 184 196
Height
742 747 746 733 724 722 727 733 733 723 712 712 710 707 701 698 697 703 704 709 720 730 739 751 760 765 771 779 783 787 789 792 794 796 798 801 803 805 808 808 809 808 809 811
741 745 726 723 725 726 729 739 739 724 713 716 714 708 699 697 696 690 695 700 708 719 732 748 760 767 773 780 785 788 790 791 792 794 796 799 802 805 806 808 809 809 809 810
738 726 715 725 732 734 730 734 732 732 720 715 719 715 707 694 688 685 683 688 698 710 726 741 753 765 773 779 783 787 789 791 791 791 795 798 802 805 806 808 809 810 811 813
731 717 726 732 734 729 734 717 720 725 730 736 714 724 703 688 680 675 686 692 700 707 722 739 752 762 770 776 782 784 787 789 791 793 795 797 798 800 805 808 810 812 813 813
736 725 726 731 729 719 722 714 717 724 727 726 720 723 692 683 684 680 686 695 703 709 722 735 747 758 768 775 781 784 787 790 791 791 793 795 795 799 803 807 809 811 813 814
733 722 722 719 718 717 714 723 723 721 724 730 714 715 697 693 688 671 688 700 705 713 722 732 744 755 764 771 778 784 787 790 791 792 793 795 797 800 803 806 809 811 812 814
729 720 711 710 722 719 722 731 748 744 737 723 695 695 686 679 681 688 695 700 706 712 717 728 739 750 760 768 775 782 787 790 791 792 793 796 798 800 802 805 808 811 814 814
738 734 717 704 707 714 720 722 739 748 733 713 682 694 690 671 679 688 690 697 705 713 718 727 737 748 757 766 774 780 783 787 790 792 793 796 798 801 804 806 808 810 813 817
736 727 704 703 699 705 718 726 710 718 711 722 707 695 672 672 684 693 701 701 707 712 718 726 735 745 755 763 770 776 781 785 788 790 794 795 797 802 803 806 807 811 815 817
725 737 715 710 705 701 708 706 727 722 735 734 713 702 695 700 700 702 710 715 706 712 717 724 732 742 750 760 767 773 778 783 786 789 792 796 798 801 804 807 809 812 814 816
723 729 724 719 716 712 708 717 713 712 715 726 731 723 708 709 709 713 706 709 725 712 719 723 730 739 747 755 763 770 775 780 783 787 792 794 797 801 804 806 809 812 815 818
732 733 736 725 713 707 707 709 713 724 722 720 725 716 693 701 702 701 704 703 711 712 715 723 725 734 745 753 759 766 772 776 781 786 789 793 796 800 803 805 808 812 817 819
736 739 741 736 722 711 709 719 727 722 724 740 739 728 693 693 695 698 701 704 703 707 714 720 725 730 739 750 757 764 769 776 781 783 786 791 795 798 800 804 807 811 816 818
741 743 743 746 735 726 727 730 728 730 733 736 721 710 702 695 695 698 700 707 699 699 707 718 723 729 734 742 750 759 767 774 779 783 785 788 792 798 800 804 809 811 814 819
745 744 739 734 729 727 724 721 724 724 719 741 728 721 705 697 696 694 693 694 695 695 699 709 717 721 731 738 745 754 762 770 777 780 785 790 792 797 800 804 808 813 813 819
731 731 738 742 731 726 723 716 716 713 712 709 710 708 697 693 689 689 687 686 688 689 692 696 706 714 726 731 737 745 754 764 773 778 782 788 792 796 800 804 808 811 814 819
740 748 738 732 727 722 724 709 708 704 700 700 702 693 687 687 685 683 682 683 685 686 687 690 694 703 714 723 732 741 750 760 768 775 780 786 790 794 799 803 807 811 814 818
730 730 739 732 723 731 694 690 690 691 688 688 688 685 684 679 677 677 679 680 681 681 681 683 688 693 705 715 727 737 745 755 763 772 778 784 788 793 797 801 805 809 813 816
716 719 724 728 720 705 689 684 681 689 690 692 680 679 677 677 681 686 692 695 689 685 684 689 692 692 700 713 723 733 743 752 761 769 774 781 787 790 795 799 803 808 811 815
696 701 716 716 717 708 681 676 676 681 692 682 686 686 696 699 695 700 708 708 698 691 691 694 696 698 703 713 721 731 741 749 758 765 772 779 785 791 794 798 802 806 810 814
697 703 706 707 712 691 679 674 677 696 688 678 682 684 687 696 708 702 703 706 699 696 698 699 700 702 708 715 723 733 741 748 757 765 772 779 785 789 793 797 801 805 809 813
688 703 698 696 702 700 696 685 710 682 676 684 690 691 691 693 696 698 700 703 702 698 701 701 702 706 711 716 724 733 741 750 757 765 772 779 783 788 792 796 800 803 806 811
687 679 682 685 681 688 689 682 680 676 678 678 681 685 689 693 695 696 699 700 698 695 699 701 706 711 716 719 725 734 743 750 757 765 772 777 783 787 791 795 799 802 806 811
693 692 692 676 670 670 672 673 673 674 673 680 680 681 686 690 692 694 697 696 694 692 696 700 707 713 717 722 727 732 740 749 757 764 770 775 780 785 790 795 798 801 805 810
701 682 675 673 673 673 673 673 673 672 673 676 676 680 683 687 687 689 693 694 690 688 698 700 701 710 718 723 729 735 741 748 756 762 767 773 778 783 789 793 797 800 803 806
675 671 673 676 672 675 679 673 673 673 672 675 676 677 678 681 683 685 688 689 688 689 697 697 701 709 716 723 729 735 742 747 753 759 765 770 775 781 786 791 794 797 801 804